SCO15ST EGPH-EGAA

Flight info

Callsign SCO15ST
Flight time 0h 33m
Altitude 22000
Route GOSAM P600 BLACA DCT BELZU
Aircraft A319/M-SDE3FGHIRWY/LB1

Departure

Time 2026-04-21 22:16
Airport Edinburgh Airport (EGPH)

Arrival

Time 2026-04-21 22:49
Airport Belfast International Airport (EGAA)
Time Latitude Longitude Altitude Speed Heading
2026-04-21 21:52 55.94747 -3.36634 106 ft 0 kts 89°
2026-04-21 22:06 55.94747 -3.36653 106 ft 2 kts 77°
2026-04-21 22:06 55.94743 -3.36675 106 ft 2 kts 68°
2026-04-21 22:06 55.94736 -3.36699 106 ft 2 kts 54°
2026-04-21 22:06 55.94725 -3.36720 106 ft 2 kts 40°
2026-04-21 22:07 55.94713 -3.36735 106 ft 2 kts 27°
2026-04-21 22:07 55.94699 -3.36745 106 ft 2 kts 13°
2026-04-21 22:07 55.94684 -3.36748 107 ft 1 kts
2026-04-21 22:07 55.94679 -3.36748 107 ft 0 kts 356°
2026-04-21 22:09 55.94694 -3.36750 106 ft 4 kts 358°
2026-04-21 22:09 55.94715 -3.36751 106 ft 6 kts 358°
2026-04-21 22:09 55.94756 -3.36766 105 ft 8 kts 329°
2026-04-21 22:10 55.94822 -3.36791 104 ft 11 kts
2026-04-21 22:10 55.94909 -3.36819 102 ft 13 kts 333°
2026-04-21 22:10 55.94902 -3.36964 102 ft 13 kts 242°
2026-04-21 22:10 55.94854 -3.37111 103 ft 13 kts 238°
2026-04-21 22:11 55.94798 -3.37258 102 ft 15 kts 236°
2026-04-21 22:11 55.94740 -3.37424 102 ft 15 kts 243°
2026-04-21 22:11 55.94687 -3.37596 103 ft 15 kts 238°
2026-04-21 22:11 55.94641 -3.37736 105 ft 10 kts 237°
2026-04-21 22:12 55.94600 -3.37848 106 ft 10 kts 238°
2026-04-21 22:12 55.94565 -3.37958 108 ft 9 kts 238°
2026-04-21 22:12 55.94530 -3.38059 110 ft 9 kts 238°
2026-04-21 22:12 55.94497 -3.38159 110 ft 9 kts 239°
2026-04-21 22:13 55.94459 -3.38269 111 ft 10 kts 239°
2026-04-21 22:13 55.94419 -3.38385 112 ft 11 kts 238°
2026-04-21 22:13 55.94384 -3.38489 115 ft 9 kts 239°
2026-04-21 22:13 55.94358 -3.38566 116 ft 5 kts 239°
2026-04-21 22:14 55.94336 -3.38631 117 ft 6 kts 239°
2026-04-21 22:14 55.94312 -3.38700 117 ft 6 kts 239°
2026-04-21 22:14 55.94287 -3.38778 118 ft 7 kts 242°
2026-04-21 22:14 55.94304 -3.38868 117 ft 9 kts 316°
2026-04-21 22:15 55.94360 -3.38949 116 ft 11 kts 327°
2026-04-21 22:15 55.94421 -3.38958 115 ft 9 kts 80°
2026-04-21 22:15 55.94430 -3.38926 115 ft 9 kts 59°
2026-04-21 22:15 55.94567 -3.38520 109 ft 81 kts 59°
2026-04-21 22:16 55.94995 -3.37253 172 ft 144 kts 59°
2026-04-21 22:16 55.95542 -3.35596 728 ft 163 kts 59°
2026-04-21 22:16 55.96142 -3.33787 1530 ft 175 kts 58°
2026-04-21 22:16 55.96780 -3.31892 2414 ft 178 kts 50°
2026-04-21 22:17 55.97754 -3.30376 2961 ft 193 kts 34°
2026-04-21 22:17 55.98906 -3.28944 3436 ft 215 kts 33°
2026-04-21 22:17 56.00251 -3.27754 4056 ft 229 kts 11°
2026-04-21 22:17 56.01873 -3.27862 4653 ft 246 kts 343°
2026-04-21 22:18 56.03317 -3.29467 5372 ft 252 kts 314°
2026-04-21 22:18 56.04142 -3.32211 5811 ft 257 kts 285°
2026-04-21 22:18 56.04086 -3.35446 6078 ft 264 kts 256°
2026-04-21 22:18 56.03297 -3.38468 6463 ft 271 kts 246°
2026-04-21 22:19 56.02462 -3.41468 6947 ft 267 kts 250°
2026-04-21 22:19 56.01783 -3.44481 7590 ft 265 kts 254°
2026-04-21 22:19 56.01234 -3.47607 8303 ft 264 kts 257°
2026-04-21 22:19 56.00756 -3.50793 9124 ft 265 kts 258°
2026-04-21 22:20 56.00304 -3.53963 10020 ft 268 kts 258°
2026-04-21 22:20 55.99855 -3.57143 11036 ft 268 kts 257°
2026-04-21 22:20 55.99390 -3.60432 11862 ft 275 kts 256°
2026-04-21 22:20 55.98914 -3.63761 12735 ft 279 kts 256°
2026-04-21 22:21 55.98429 -3.67125 13665 ft 281 kts 255°
2026-04-21 22:23 55.94561 -3.93870 20300 ft 285 kts 254°
2026-04-21 22:23 55.94074 -3.97325 21031 ft 287 kts 256°
2026-04-21 22:23 55.93590 -4.00808 21746 ft 288 kts 249°
2026-04-21 22:23 55.92484 -4.03823 22264 ft 294 kts 227°
2026-04-21 22:24 55.90846 -4.06134 22507 ft 298 kts 220°
2026-04-21 22:24 55.89101 -4.08213 22519 ft 298 kts 218°
2026-04-21 22:24 55.87354 -4.10236 22524 ft 297 kts 218°
2026-04-21 22:24 55.85605 -4.12254 22527 ft 297 kts 218°
2026-04-21 22:25 55.83821 -4.14317 22532 ft 306 kts 218°
2026-04-21 22:25 55.81982 -4.16457 22530 ft 328 kts 218°
2026-04-21 22:25 55.79961 -4.18804 22529 ft 349 kts 218°
2026-04-21 22:25 55.77877 -4.21323 22529 ft 366 kts 220°
2026-04-21 22:26 55.75740 -4.23991 22528 ft 382 kts 219°
2026-04-21 22:26 55.73509 -4.26755 22528 ft 391 kts 219°
2026-04-21 22:26 55.71267 -4.29525 22529 ft 396 kts 219°
2026-04-21 22:26 55.68954 -4.32393 22528 ft 408 kts 219°
2026-04-21 22:27 55.66575 -4.35342 22529 ft 418 kts 219°
2026-04-21 22:27 55.64166 -4.38318 22527 ft 421 kts 219°
2026-04-21 22:27 55.61751 -4.41294 22526 ft 421 kts 219°
2026-04-21 22:27 55.59293 -4.44318 22523 ft 421 kts 219°
2026-04-21 22:28 55.56860 -4.47307 22520 ft 421 kts 219°
2026-04-21 22:28 55.54438 -4.50280 22516 ft 421 kts 219°
2026-04-21 22:28 55.52011 -4.53252 22513 ft 421 kts 219°
2026-04-21 22:28 55.49601 -4.56201 22510 ft 421 kts 219°
2026-04-21 22:29 55.47160 -4.59183 22508 ft 421 kts 219°
2026-04-21 22:29 55.44765 -4.62104 22507 ft 421 kts 219°
2026-04-21 22:29 55.42336 -4.65061 22506 ft 421 kts 218°
2026-04-21 22:29 55.39910 -4.68018 22506 ft 421 kts 218°
2026-04-21 22:30 55.37458 -4.71007 22505 ft 421 kts 218°
2026-04-21 22:30 55.35046 -4.73938 22505 ft 421 kts 218°
2026-04-21 22:30 55.32580 -4.76801 22505 ft 423 kts 216°
2026-04-21 22:30 55.30012 -4.79473 22505 ft 424 kts 213°
2026-04-21 22:31 55.27369 -4.81917 22505 ft 426 kts 211°
2026-04-21 22:31 55.24663 -4.84285 22505 ft 425 kts 211°
2026-04-21 22:31 55.21975 -4.86652 22505 ft 425 kts 210°
2026-04-21 22:31 55.19303 -4.89003 22505 ft 425 kts 210°
2026-04-21 22:32 55.16626 -4.91351 22505 ft 425 kts 210°
2026-04-21 22:32 55.13940 -4.93701 22505 ft 424 kts 210°
2026-04-21 22:32 55.11273 -4.96029 22505 ft 424 kts 210°
2026-04-21 22:32 55.08625 -4.98343 22505 ft 424 kts 210°
2026-04-21 22:33 55.05941 -5.00683 22505 ft 424 kts 209°
2026-04-21 22:33 55.03241 -5.03032 22505 ft 424 kts 209°
2026-04-21 22:33 55.00593 -5.05326 22506 ft 422 kts 209°
2026-04-21 22:33 54.97936 -5.07618 22505 ft 420 kts 210°
2026-04-21 22:34 54.95449 -5.09763 22503 ft 418 kts 210°
2026-04-21 22:34 54.92804 -5.12044 22499 ft 416 kts 210°
2026-04-21 22:34 54.90228 -5.14344 22488 ft 412 kts 214°
2026-04-21 22:34 54.89285 -5.15489 22477 ft 407 kts 222°
2026-04-21 22:35 54.87511 -5.19001 22482 ft 403 kts 238°
2026-04-21 22:35 54.86217 -5.23334 22481 ft 403 kts 243°
2026-04-21 22:35 54.84942 -5.27759 22468 ft 403 kts 243°
2026-04-21 22:35 54.83670 -5.32140 22456 ft 403 kts 243°
2026-04-21 22:36 54.81150 -5.40810 22157 ft 395 kts 243°
2026-04-21 22:36 54.79909 -5.45075 21190 ft 393 kts 243°
2026-04-21 22:36 54.78669 -5.49322 20043 ft 394 kts 243°
2026-04-21 22:37 54.77434 -5.53549 19021 ft 392 kts 243°
2026-04-21 22:37 54.76210 -5.57730 18061 ft 389 kts 243°
2026-04-21 22:37 54.74977 -5.61937 17100 ft 387 kts 243°
2026-04-21 22:37 54.73786 -5.65994 16189 ft 385 kts 242°
2026-04-21 22:38 54.72570 -5.70137 15280 ft 383 kts 242°
2026-04-21 22:38 54.71390 -5.74152 14403 ft 381 kts 242°
2026-04-21 22:38 54.70179 -5.78264 13489 ft 380 kts 242°
2026-04-21 22:38 54.68972 -5.82351 12563 ft 378 kts 242°
2026-04-21 22:39 54.67764 -5.86439 11675 ft 375 kts 242°
2026-04-21 22:39 54.66586 -5.90424 11043 ft 366 kts 242°
2026-04-21 22:39 54.65429 -5.94332 10410 ft 358 kts 241°
2026-04-21 22:39 54.64285 -5.98184 9772 ft 351 kts 240°
2026-04-21 22:40 54.63152 -6.01986 9059 ft 344 kts 240°
2026-04-21 22:40 54.62192 -6.05209 8426 ft 322 kts 240°
2026-04-21 22:40 54.61183 -6.08586 7712 ft 302 kts 239°
2026-04-21 22:40 54.60228 -6.11773 7019 ft 286 kts 239°
2026-04-21 22:41 54.59320 -6.14794 6382 ft 274 kts 239°
2026-04-21 22:41 54.58439 -6.17716 5741 ft 265 kts 239°
2026-04-21 22:41 54.57586 -6.20541 5132 ft 257 kts 239°
2026-04-21 22:41 54.56764 -6.23261 4599 ft 248 kts 239°
2026-04-21 22:42 54.55960 -6.25920 4142 ft 238 kts 239°
2026-04-21 22:42 54.55205 -6.28427 4002 ft 217 kts 239°
2026-04-21 22:42 54.54507 -6.30741 3996 ft 212 kts 239°
2026-04-21 22:42 54.53802 -6.33061 3995 ft 212 kts 239°
2026-04-21 22:43 54.53098 -6.35379 3993 ft 212 kts 239°
2026-04-21 22:43 54.52404 -6.37665 3984 ft 212 kts 239°
2026-04-21 22:43 54.51772 -6.39768 3804 ft 215 kts 242°
2026-04-21 22:43 54.51490 -6.42368 3479 ft 223 kts 278°
2026-04-21 22:44 54.52204 -6.44791 3162 ft 224 kts 319°
2026-04-21 22:44 54.53555 -6.46179 2860 ft 214 kts 339°
2026-04-21 22:44 54.54910 -6.47171 2573 ft 204 kts 340°
2026-04-21 22:44 54.56202 -6.48110 2507 ft 192 kts 340°
2026-04-21 22:45 54.57468 -6.48828 2483 ft 188 kts
2026-04-21 22:45 54.58624 -6.48031 2474 ft 176 kts 55°
2026-04-21 22:45 54.59190 -6.46166 2504 ft 173 kts 71°
2026-04-21 22:45 54.59660 -6.44196 2499 ft 172 kts 71°
2026-04-21 22:46 54.60126 -6.42349 2601 ft 156 kts 70°
2026-04-21 22:46 54.60578 -6.40617 2539 ft 153 kts 70°
2026-04-21 22:46 54.61036 -6.38889 2498 ft 152 kts 69°
2026-04-21 22:46 54.61488 -6.37200 2286 ft 152 kts 69°
2026-04-21 22:47 54.61936 -6.35537 1915 ft 146 kts 69°
2026-04-21 22:47 54.62344 -6.34026 1548 ft 142 kts 68°
2026-04-21 22:47 54.62751 -6.32524 1208 ft 136 kts 68°
2026-04-21 22:47 54.63145 -6.31081 935 ft 127 kts 68°
2026-04-21 22:48 54.63523 -6.29698 750 ft 123 kts 68°
2026-04-21 22:48 54.63893 -6.28337 645 ft 123 kts 67°
2026-04-21 22:48 54.64262 -6.26980 570 ft 123 kts 67°
2026-04-21 22:48 54.64658 -6.25621 542 ft 123 kts 64°
2026-04-21 22:49 54.65031 -6.24267 407 ft 120 kts 68°
2026-04-21 22:49 54.65369 -6.23004 285 ft 110 kts 68°
2026-04-21 22:49 54.65639 -6.22001 277 ft 72 kts 65°
2026-04-21 22:49 54.65803 -6.21431 277 ft 30 kts 68°
2026-04-21 22:50 54.65928 -6.21373 277 ft 10 kts 340°
2026-04-21 22:50 54.65960 -6.21398 277 ft 6 kts 309°
2026-04-21 22:50 54.65942 -6.21547 277 ft 12 kts 256°
2026-04-21 22:50 54.65988 -6.21636 277 ft 11 kts 337°
2026-04-21 22:51 54.66013 -6.21717 277 ft 5 kts 243°
2026-04-21 22:51 54.65996 -6.21777 277 ft 2 kts 245°
2026-04-21 22:51 54.65996 -6.21779 277 ft 0 kts 245°